+ View the NASA Portal
+ Center for Near-Earth Object Studies
IMPORTANT:
The SSD Announcement email list is now available. Major changes are coming in the near future, including possible hostname and/or URL changes. To be notified of such changes, subscribe to this email list.
Please visit
this page
for more details.
Don't show this message again
JPL Small-Body Database Browser
Search:
[
help
]
243527 (2010 DZ42)
Classification:
Main-belt Asteroid
SPK-ID:
2243527
[
Ephemeris
|
Orbit Diagram
|
Orbital Elements
|
Mission Design
|
Physical Parameters
|
Discovery Circumstances
|
Close-Approach Data
]
[ show orbit diagram ]
Orbital Elements at Epoch 2458600.5 (2019-Apr-27.0) TDB
Reference:
JPL 10
(heliocentric ecliptic J2000)
Element
Value
Uncertainty (1-sigma)
Units
e
.1620752742447144
8.3795e-08
a
2.642181775284989
3.2468e-08
au
q
2.213949439451289
2.2402e-07
au
i
5.427928360861007
9.5932e-06
deg
node
338.6329643415048
7.6033e-05
deg
peri
221.7956992121788
8.0739e-05
deg
M
24.87657608053838
3.3499e-05
deg
t
p
2458492.099678433981
(2019-Jan-08.59967843)
0.00014471
TDB
period
1568.709280466308
4.29
2.8915e-05
7.916e-08
d
yr
n
.2294880284592871
4.23e-09
deg/d
Q
3.070414111118691
3.773e-08
au
Orbit Determination Parameters
# obs. used (total)
181
data-arc span
7650 days (20.94 yr)
first obs. used
1997-02-01
last obs. used
2018-01-12
planetary ephem.
DE431
SB-pert. ephem.
SB431-N16
condition code
0
norm. resid. RMS
.59268
source
ORB
producer
Otto Matic
solution date
2018-Oct-04 09:33:20
Additional Information
Earth MOID
= 1.21563 au
Jupiter MOID
= 1.91311 au
T_jup
= 3.369
[ show covariance matrix ]
[
Ephemeris
|
Orbit Diagram
|
Orbital Elements
|
Mission Design
|
Physical Parameters
|
Discovery Circumstances
|
Close-Approach Data
]
Physical Parameter Table
Parameter
Symbol
Value
Units
Sigma
Reference
Notes
absolute magnitude
H
16.4
n/a
MPO433595
diameter
diameter
2.789
km
0.113
urn:nasa:pds:neowise_diameters_albedos::2.0[mainbelt] (http://adsabs.harvard.edu/abs/2011ApJ...741...68M)
geometric albedo
albedo
0.057
0.012
urn:nasa:pds:neowise_diameters_albedos::2.0[mainbelt] (http://adsabs.harvard.edu/abs/2011ApJ...741...68M)
243527 (2010 DZ42)
Discovered 2010-Feb-17 by Spacewatch at Kitt Peak
Reference:
20100626/Numbers.arc
Last Updated:
2010-06-28
[ show close-approach data ]
Alternate Designations
2010 DZ42
= 1997 CP17 = 2007 RM65
[
Ephemeris
|
Orbit Diagram
|
Orbital Elements
|
Mission Design
|
Physical Parameters
|
Discovery Circumstances
|
Close-Approach Data
]
2019-Dec-10 16:24 UT
(server date/time)
Site Manager:
Ryan S. Park
Webmaster
:
Alan B. Chamberlin